Regional Weather Roundup
Issued by NWS

Home | Current Version | Previous Version | Graphics & Text | Print | Product List | Glossary On
Versions: 1 2 3 4 5 6 7 8 9 10 11 12 13 14 15 16 17 18 19 20 21 22 23 24 25 26 27 28 29 30 31 32 33 34 35 36 37 38 39 40 41 42 43 44 45 46 47 48 49 50
000
ASUS45 KCYS 271110
RWRWY

WYOMING REGIONAL WEATHER ROUNDUP
NATIONAL WEATHER SERVICE CHEYENNE WY
500 AM MDT FRI MAR 27 2015

NOTE:  "FAIR" INDICATES FEW OR NO CLOUDS BELOW 12,000 FEET
WITH NO SIGNIFICANT WEATHER AND/OR OBSTRUCTIONS TO VISIBILITY.

WYZ001-271200-
YELLOWSTONE NATIONAL PARK

CITY           SKY/WX    TMP DP  RH WIND       PRES   REMARKS
LK YELLOWSTONE   N/A     23  21  92 CALM      30.37R
W YELLOWSTONE  NOT AVBL

$$
WYZ002>013-054>058-071-098>099-271200-
NORTHERN WYOMING

CITY           SKY/WX    TMP DP  RH WIND       PRES   REMARKS
JACKSON        FAIR      27  27 100 N9        30.34S WCI  17
CODY           FAIR      54  30  40 W14G23    30.14S
GREYBULL       FAIR      37  30  75 SE5       30.14R WCI  33
WORLAND        FAIR      37  29  72 S9        30.14R WCI  30
SHERIDAN       FAIR      50  34  54 CALM      30.11S
BUFFALO        FAIR      45  34  65 CALM      30.12S
GILLETTE       FAIR      44  38  79 W15       30.08S
HULETT         CLOUDY    43  36  75 SW13      30.07S
NEWCASTLE      FAIR      36  34  93 CALM      30.10F

$$
WYZ014>020-022>026-101>103-271200-
CENTRAL WYOMING

CITY           SKY/WX    TMP DP  RH WIND       PRES   REMARKS
BIG PINEY      FAIR      30  25  81 SE5       30.32R WCI  25
PINEDALE       FAIR      32  28  86 NW10      30.32S WCI  24
DUBOIS         FAIR      37  28  70 NW17G26   30.28S WCI  28
LANDER         FAIR      38  26  62 N5        30.16F WCI  34
RIVERTON       FAIR      46  29  51 W18       30.18S
CASPER         FAIR      40  29  64 W6G17     30.16S
DOUGLAS        CLOUDY    49  31  49 NW10      30.14R

$$
WYZ021-027>030-104>119-271200-
SOUTHERN WYOMING

CITY           SKY/WX    TMP DP  RH WIND       PRES   REMARKS
EVANSTON       FAIR      33  24  69 S8        30.37S WCI  26
KEMMERER       FAIR      34  30  86 W9        30.36S WCI  26
FORT BRIDGER   FAIR      38  28  65 SW10      30.38S WCI  31
ROCK SPRINGS   FAIR      38  28  67 SW17      30.30S WCI  28
DIXON          FAIR      28  26  89 CALM      30.34F
RAWLINS        FAIR      36  28  73 VRB5      30.26S WCI  32
SARATOGA       FAIR      36  28  75 MISG      30.28S
LARAMIE        CLOUDY    37  27  67 W6        30.22R WCI  32
CHEYENNE       CLOUDY    48  28  46 NW15G29   30.15R
TORRINGTON     CLOUDY    37  31  78 E8        30.14S WCI  31
PINE BLUFFS    CLOUDY    41  30  65 CALM      30.14R

$$



USA.gov is the U.S. government's official web portal to all federal, state and local government web resources and services.